Weather History for Land O' Lakes, WI

Change the Weather History Date:

Saturday, November 3, 2012

  Actual Average (KEGV) Record (KEGV)
Temperature  
Mean Temperature 26 °F -  
Max Temperature 33 °F 39 °F 67 °F (2008)
Min Temperature 19 °F 29 °F 15 °F (1991)
Degree Days  
Heating Degree Days 39    
Moisture  
Dew Point 23 °F    
Average Humidity 79    
Maximum Humidity 100    
Minimum Humidity 65    
Precipitation  
Precipitation 0.00 in - - ()
Sea Level Pressure  
Sea Level Pressure 30.21 in    
Wind  
Wind Speed 3 mph (NE)    
Max Wind Speed 7 mph    
Max Gust Speed -    
Visibility 10 miles    
Events      
Averages and records for this station are not official NWS values.
T = Trace of Precipitation, MM = Missing Value Source: NWS Daily Summary

Daily Weather History Graph

Daily Weather History Graph

Search for Another Location

Airport:

Trip Planner

Search our weather history database for the weather conditions in past years. The results will help you decide how hot, cold, wet, or windy it might be!

Date:

Astronomy

Nov. 03, 2012 Rise Set
Actual Time 7:41 AM CDT 5:38 PM CDT
Civil Twilight 7:09 AM CDT 6:10 PM CDT
Nautical Twilight 6:34 AM CDT 6:45 PM CDT
Astronomical Twilight 5:59 AM CDT 7:20 PM CDT
Moon 9:14 PM CDT (11/3) 11:51 AM CDT (11/3)
Length of Visible Light 11h 00m
Length of Day
9h 57m
Waning Gibbous, 80% of the Moon is Illuminated
Nov 3
Waning Gibbous
Nov 6
Last Quarter
Nov 13
New
Nov 20
First Quarter
Nov 28
Full

Hourly Weather History & Observations

Time (CDT) Temp. Windchill Dew Point Humidity Pressure Visibility Wind Dir Wind Speed Gust Speed Precip Events Conditions
12:15 AM 28.4 °F 22.2 °F 23.0 °F 80% 30.18 in 10.0 mi NE 5.8 mph - N/A   Overcast
12:35 AM 28.4 °F - 23.0 °F 80% 30.19 in 10.0 mi Calm Calm - N/A   Overcast
12:55 AM 28.4 °F 24.6 °F 23.0 °F 80% 30.20 in 10.0 mi North 3.5 mph - N/A   Overcast
1:15 AM 28.4 °F 23.3 °F 23.0 °F 80% 30.20 in 10.0 mi NNE 4.6 mph - N/A   Overcast
1:35 AM 28.4 °F 24.6 °F 23.0 °F 80% 30.20 in 10.0 mi NNE 3.5 mph - N/A   Overcast
1:55 AM 28.4 °F - 23.0 °F 80% 30.19 in 10.0 mi Calm Calm - N/A   Overcast
2:15 AM 28.4 °F 24.6 °F 23.0 °F 80% 30.20 in 10.0 mi NNE 3.5 mph - N/A   Overcast
2:35 AM 28.4 °F 23.3 °F 23.0 °F 80% 30.20 in 10.0 mi NNE 4.6 mph - N/A   Overcast
2:55 AM 28.4 °F 22.2 °F 23.0 °F 80% 30.20 in 10.0 mi NE 5.8 mph - N/A   Overcast
3:15 AM 28.4 °F 21.2 °F 23.0 °F 80% 30.20 in 10.0 mi NE 6.9 mph - N/A   Overcast
3:35 AM 28.4 °F 22.2 °F 23.0 °F 80% 30.20 in 10.0 mi East 5.8 mph - N/A   Overcast
3:55 AM 28.4 °F 24.6 °F 23.0 °F 80% 30.20 in 10.0 mi NNE 3.5 mph - N/A   Overcast
4:15 AM 28.4 °F 22.2 °F 23.0 °F 80% 30.20 in 10.0 mi NNE 5.8 mph - N/A   Overcast
4:35 AM 28.4 °F - 23.0 °F 80% 30.20 in 10.0 mi Calm Calm - N/A   Overcast
4:55 AM 28.4 °F - 23.0 °F 80% 30.20 in 10.0 mi Calm Calm - N/A   Overcast
5:15 AM 28.4 °F - 23.0 °F 80% 30.20 in 10.0 mi Calm Calm - N/A   Overcast
5:35 AM 28.4 °F - 23.0 °F 80% 30.21 in 10.0 mi Calm Calm - N/A   Overcast
5:55 AM 28.4 °F - 23.0 °F 80% 30.21 in 10.0 mi Calm Calm - N/A   Overcast
6:35 AM 28.4 °F - 24.8 °F 86% 30.20 in 10.0 mi Calm Calm - N/A   Overcast
6:55 AM 28.4 °F 23.3 °F 23.0 °F 80% 30.21 in 10.0 mi East 4.6 mph - N/A   Overcast
7:15 AM 28.4 °F 23.3 °F 23.0 °F 80% 30.20 in 10.0 mi East 4.6 mph - N/A   Overcast
7:35 AM 28.4 °F - 23.0 °F 80% 30.21 in 10.0 mi Calm Calm - N/A   Overcast
7:55 AM 28.4 °F - 23.0 °F 80% 30.21 in 10.0 mi Calm Calm - N/A   Overcast
8:15 AM 28.4 °F - 24.8 °F 86% 30.22 in 10.0 mi Calm Calm - N/A   Overcast
8:35 AM 28.4 °F 24.6 °F 24.8 °F 86% 30.22 in 10.0 mi ENE 3.5 mph - N/A   Overcast
8:55 AM 30.2 °F 25.4 °F 24.8 °F 80% 30.22 in 10.0 mi ENE 4.6 mph - N/A   Overcast
9:15 AM 30.2 °F 24.3 °F 23.0 °F 75% 30.22 in 10.0 mi ENE 5.8 mph - N/A   Overcast
9:35 AM 30.2 °F - 23.0 °F 75% 30.22 in 10.0 mi Calm Calm - N/A   Overcast
9:55 AM 30.2 °F - 24.8 °F 80% 30.22 in 10.0 mi Calm Calm - N/A   Overcast
10:35 AM 30.2 °F 26.7 °F 24.8 °F 80% 30.23 in 10.0 mi East 3.5 mph - N/A   Overcast
10:55 AM 30.2 °F 26.7 °F 24.8 °F 80% 30.23 in 10.0 mi ENE 3.5 mph - N/A   Overcast
11:15 AM 30.2 °F - 24.8 °F 80% 30.23 in 10.0 mi Calm Calm - N/A   Overcast
11:35 AM 32.0 °F 28.7 °F 24.8 °F 75% 30.23 in 10.0 mi ESE 3.5 mph - N/A   Overcast
11:55 AM 32.0 °F - 24.8 °F 75% 30.23 in 10.0 mi Calm Calm - N/A   Overcast
12:15 PM 32.0 °F - 24.8 °F 75% 30.23 in 10.0 mi Calm Calm - N/A   Overcast
12:35 PM 32.0 °F 28.7 °F 24.8 °F 75% 30.23 in 10.0 mi NE 3.5 mph - N/A   Overcast
1:15 PM 32.0 °F - 24.8 °F 75% 30.23 in 10.0 mi Calm Calm - N/A   Overcast
1:35 PM 32.0 °F - 23.0 °F 69% 30.23 in 10.0 mi Calm Calm - N/A   Overcast
1:55 PM 32.0 °F - 24.8 °F 75% 30.23 in 10.0 mi Calm Calm - N/A   Overcast
2:15 PM 32.0 °F - 23.0 °F 69% 30.22 in 10.0 mi Calm Calm - N/A   Overcast
2:35 PM 32.0 °F 28.7 °F 23.0 °F 69% 30.22 in 10.0 mi NE 3.5 mph - N/A   Overcast
2:55 PM 32.0 °F - 23.0 °F 69% 30.22 in 10.0 mi Calm Calm - N/A   Scattered Clouds
3:15 PM 32.0 °F - 24.8 °F 75% 30.21 in 10.0 mi Calm Calm - N/A   Clear
3:35 PM 33.8 °F 30.8 °F 24.8 °F 70% 30.21 in 10.0 mi NW 3.5 mph - N/A   Clear
3:55 PM 33.8 °F 29.6 °F 23.0 °F 65% 30.21 in 10.0 mi North 4.6 mph - N/A   Mostly Cloudy
4:15 PM 33.8 °F 30.8 °F 23.0 °F 65% 30.21 in 10.0 mi NE 3.5 mph - N/A   Scattered Clouds
4:35 PM 32.0 °F 27.5 °F 23.0 °F 69% 30.21 in 10.0 mi NNE 4.6 mph - N/A   Clear
4:55 PM 32.0 °F - 23.0 °F 69% 30.21 in 10.0 mi Calm Calm - N/A   Clear
5:15 PM 32.0 °F 27.5 °F 23.0 °F 69% 30.21 in 10.0 mi North 4.6 mph - N/A   Clear
5:35 PM 32.0 °F 28.7 °F 23.0 °F 69% 30.21 in 10.0 mi North 3.5 mph - N/A   Clear
5:55 PM 32.0 °F - 23.0 °F 69% 30.21 in 10.0 mi Calm Calm - N/A   Clear
6:15 PM 32.0 °F - 23.0 °F 69% 30.21 in 10.0 mi Calm Calm - N/A   Clear
6:35 PM 30.2 °F 26.7 °F 23.0 °F 75% 30.21 in 10.0 mi NE 3.5 mph - N/A   Clear
6:55 PM 30.2 °F 26.7 °F 23.0 °F 75% 30.21 in 10.0 mi NNE 3.5 mph - N/A   Clear
7:15 PM 30.2 °F - 23.0 °F 75% 30.21 in 10.0 mi Calm Calm - N/A   Clear
7:35 PM 28.4 °F - 23.0 °F 80% 30.22 in 10.0 mi Calm Calm - N/A   Clear
7:55 PM 26.6 °F - 23.0 °F 86% 30.22 in 10.0 mi Calm Calm - N/A   Clear
8:15 PM 26.6 °F - 23.0 °F 86% 30.22 in 10.0 mi Calm Calm - N/A   Clear
8:35 PM 24.8 °F - 23.0 °F 93% 30.22 in 10.0 mi Calm Calm - N/A   Clear
8:55 PM 24.8 °F - 23.0 °F 93% 30.22 in 10.0 mi Calm Calm - N/A   Clear
9:35 PM 23.0 °F - 21.2 °F 93% 30.23 in 10.0 mi Calm Calm - N/A   Clear
9:55 PM 21.2 °F - 21.2 °F 100% 30.23 in 10.0 mi Calm Calm - N/A   Clear
10:15 PM 21.2 °F - 19.4 °F 93% 30.23 in 10.0 mi Calm Calm - N/A   Scattered Clouds
10:35 PM 21.2 °F - 19.4 °F 93% 30.23 in 10.0 mi Calm Calm - N/A   Overcast
10:55 PM 21.2 °F - 19.4 °F 93% 30.23 in 10.0 mi Calm Calm - N/A   Mostly Cloudy
11:15 PM 21.2 °F - 19.4 °F 93% 30.23 in 10.0 mi Calm Calm - N/A   Clear
11:35 PM 19.4 °F - 19.4 °F 100% 30.23 in 10.0 mi Calm Calm - N/A   Scattered Clouds
11:55 PM 19.4 °F - 17.6 °F 93% 30.23 in 10.0 mi Calm Calm - N/A   Clear